Wind_Speed
30 31 32 32 33 33 34 34 34 34 34 34 33 32 32 32 32 32 33 33 34 34 35 35 35 36 37 37 37 37 38 38 38 38 38 38 38 38 38 40 41 41 41 41 41 40 39 38 37 37 36 35 34 35 35 36 37 37 37 36 35 34 34 34 35 36 37 37 38 38 37 37 36 35 35 34 35 35 36 36 37 37 36 36 35 35
31 32 32 32 33 33 33 33 32 32 32 32 31 31 30 31 32 32 33 33 33 34 34 35 35 36 37 37 37 38 38 38 39 39 38 38 38 38 39 40 41 41 41 40 39 38 37 36 36 36 36 36 36 36 36 37 37 36 35 34 33 33 33 34 35 36 36 36 37 37 37 37 37 36 35 34 34 35 35 36 36 36 36 36 36 36
30 31 31 31 31 31 31 32 31 31 31 31 30 30 30 31 32 32 33 33 34 34 34 35 35 36 37 38 38 38 38 38 38 38 38 38 38 38 39 40 40 40 40 39 37 36 36 36 37 37 37 37 37 36 36 36 35 35 34 33 32 32 32 33 34 35 35 36 36 36 37 37 36 36 35 34 34 35 35 35 35 35 35 36 36 36
28 29 30 30 30 30 30 30 30 29 29 29 29 29 30 31 32 33 33 34 35 35 35 36 36 36 36 37 37 37 37 37 38 38 38 38 38 39 39 39 39 38 37 36 36 36 37 37 38 38 38 37 36 35 34 34 33 33 33 33 33 33 33 33 34 34 35 35 35 36 36 36 36 36 35 35 34 34 34 34 34 34 35 35 36 37
27 28 29 29 29 30 30 29 27 26 26 27 28 29 30 31 32 33 34 34 35 35 35 35 35 35 35 35 36 37 37 38 38 38 38 38 38 38 38 37 36 35 35 36 37 38 38 38 38 37 36 36 35 34 34 33 33 33 33 33 33 33 34 34 34 34 34 34 34 35 35 36 36 36 35 35 34 34 34 33 33 34 34 35 36 37
28 28 29 29 29 28 27 25 24 23 25 26 28 29 30 31 32 33 33 34 34 34 35 34 34 35 35 35 36 36 37 37 37 37 37 36 36 36 35 34 33 34 35 36 37 38 38 37 36 36 36 36 36 35 35 35 34 34 34 34 33 34 34 35 35 35 34 34 34 34 35 35 36 36 35 35 34 34 33 33 33 34 34 35 36 37
29 30 30 29 26 24 21 22 22 23 25 27 28 30 30 31 32 32 32 33 33 34 34 34 34 34 34 34 34 34 34 34 34 34 33 33 33 33 32 32 33 34 35 36 36 37 37 36 36 37 37 37 37 37 37 36 36 36 35 35 35 35 35 36 36 35 35 34 34 34 34 35 35 35 35 35 35 34 34 34 34 34 35 35 36 37
28 30 29 25 22 20 20 21 23 25 26 27 28 29 30 31 31 32 32 33 33 33 33 33 32 32 31 31 32 32 32 31 31 31 30 30 30 30 31 32 33 34 35 36 36 36 37 37 37 38 38 38 38 38 38 37 36 35 35 35 35 35 36 36 36 36 35 35 34 34 34 34 35 35 35 35 35 35 34 35 35 35 35 36 36 36
26 25 23 20 19 20 22 23 25 27 27 28 28 28 28 29 30 31 32 32 32 31 31 30 30 30 31 31 31 31 30 30 30 30 30 30 30 30 31 32 33 34 35 35 36 36 37 38 38 39 39 38 37 36 34 32 30 30 30 30 31 32 34 35 36 36 36 35 34 34 33 33 33 33 33 33 33 34 34 35 35 36 36 36 35 36
22 20 20 21 22 23 23 25 27 28 28 28 28 28 28 28 28 28 29 29 30 30 30 29 29 29 30 30 30 30 30 30 31 31 32 32 32 33 34 34 34 35 35 36 36 36 37 38 38 37 36 35 33 31 29 28 28 29 29 28 28 29 30 31 33 34 35 34 33 32 32 31 31 31 31 31 31 32 33 34 35 35 35 35 35 35
20 20 22 24 26 26 26 26 28 29 29 29 29 29 28 27 26 24 22 23 27 30 29 29 29 29 29 29 30 30 30 31 32 32 33 33 33 34 34 34 34 34 34 34 34 35 35 35 34 33 33 32 32 31 30 30 31 31 30 29 29 28 28 28 30 31 32 33 32 30 29 28 27 27 28 29 30 31 32 33 34 34 34 34 34 35
21 22 23 24 24 25 26 27 28 29 28 27 25 24 25 26 26 24 21 20 24 28 29 29 29 29 29 30 31 31 31 31 31 31 31 30 30 30 30 29 29 29 29 29 29 29 30 30 31 31 32 32 32 32 32 32 32 32 31 30 29 27 26 26 27 28 29 30 29 28 26 25 24 24 25 27 28 29 31 32 33 33 34 33 33 34
23 22 22 22 23 23 24 25 26 26 25 22 18 15 17 24 27 27 26 25 26 28 29 29 29 30 31 32 31 31 30 30 30 29 28 26 25 25 24 24 24 24 24 25 26 26 27 28 30 31 31 31 32 32 32 32 31 30 29 28 27 26 25 25 25 25 25 25 25 25 24 23 22 23 24 26 27 28 29 31 31 32 33 33 32 33
21 21 20 20 20 22 23 24 22 20 20 20 19 20 23 26 28 28 27 27 28 29 29 29 29 31 32 32 30 28 27 26 24 23 23 22 22 22 23 23 24 25 25 26 27 28 29 30 30 31 31 31 31 31 30 29 28 27 26 25 25 24 24 23 23 22 22 22 21 21 21 22 22 23 24 26 27 28 29 30 30 31 32 32 32 33
17 16 13 11 13 18 23 23 21 19 20 22 23 25 27 28 28 27 25 24 26 29 29 29 29 29 28 25 22 21 21 21 21 21 22 24 25 26 25 25 26 27 27 27 28 30 31 31 31 31 31 31 31 30 29 27 26 25 25 24 24 23 22 22 21 21 21 20 20 20 21 22 23 24 25 26 27 27 28 29 30 31 31 32 32 33
18 15 10 10 12 17 23 23 21 20 21 23 25 27 27 27 27 26 25 23 25 26 24 18 16 17 17 17 17 17 20 22 23 24 25 27 28 27 26 26 26 27 27 28 28 30 30 31 31 31 31 30 30 29 28 27 26 25 25 25 24 24 23 23 22 22 22 21 21 22 23 24 25 25 26 27 27 28 29 29 30 31 31 32 32 32
17 15 12 11 12 17 24 23 22 22 23 24 26 27 27 26 26 26 25 24 24 22 17 11 8 8 8 15 20 23 23 24 25 25 25 26 27 28 27 27 26 27 28 28 29 30 30 30 30 29 29 29 28 28 28 27 27 27 27 26 26 26 25 24 24 24 24 24 24 25 25 26 26 26 27 27 28 28 29 30 30 31 31 32 32 32
18 18 17 14 15 19 23 22 22 23 24 25 26 27 28 28 27 27 26 25 22 17 12 9 7 6 6 7 18 27 26 25 24 24 24 25 27 29 28 27 27 27 28 29 30 30 29 29 28 28 28 29 29 28 28 29 29 29 28 27 26 26 25 25 25 25 25 25 26 26 26 26 26 27 27 28 28 29 30 30 31 31 31 32 32 32
22 23 22 20 20 21 22 22 22 23 24 25 26 26 27 28 28 28 27 27 25 20 15 11 8 7 7 9 19 28 28 26 24 23 22 23 27 30 29 27 27 27 28 29 29 29 28 28 28 28 27 27 27 27 27 27 27 26 25 23 23 24 24 25 25 25 26 26 26 26 27 27 27 27 28 28 29 30 30 31 31 31 31 32 32 32
25 26 25 24 22 21 21 22 24 25 27 28 28 27 26 27 28 28 27 27 25 22 18 13 10 10 15 20 27 30 28 26 24 23 21 22 26 28 28 26 26 26 27 28 28 27 25 24 24 24 25 25 25 25 25 25 23 23 23 23 23 23 23 24 25 26 27 27 28 28 28 28 28 28 29 29 29 30 30 31 32 32 32 32 32 31
26 26 27 25 23 21 20 23 25 27 29 30 29 28 27 27 26 25 25 25 23 20 18 14 14 18 24 26 28 30 29 26 23 20 18 18 22 25 26 26 26 26 26 26 25 23 22 22 24 25 26 26 26 27 28 29 29 28 25 23 23 23 24 25 27 28 28 29 30 30 30 30 30 30 30 30 30 30 31 31 32 32 32 32 32 31
27 27 27 26 24 23 23 25 27 29 30 30 29 28 27 26 24 24 25 25 23 21 20 19 23 27 29 29 29 30 28 25 22 19 15 11 14 22 27 26 25 23 21 20 18 18 20 23 24 26 27 27 27 27 28 27 26 24 22 22 23 24 26 28 28 29 29 30 30 31 31 31 31 31 31 30 31 31 31 32 32 32 32 31 31 31
28 27 27 25 24 24 25 26 28 30 31 30 30 30 29 28 28 28 28 27 26 25 26 28 31 31 30 29 28 28 26 24 23 20 13 9 11 19 26 24 21 19 18 19 20 22 24 25 26 27 28 28 28 27 25 23 22 22 22 23 23 25 26 27 28 28 29 29 30 31 31 31 32 32 31 31 31 32 32 32 32 31 31 30 30 30
27 25 25 23 23 24 26 28 30 32 33 33 32 31 31 31 30 30 30 30 29 29 29 30 29 28 26 26 25 25 25 23 22 19 12 7 11 19 23 20 18 18 20 22 24 25 26 27 28 28 28 28 27 26 24 23 23 23 23 23 24 25 26 27 27 27 27 28 29 30 31 31 32 32 32 32 32 32 32 32 31 31 30 29 29 29
25 24 23 24 25 28 31 33 35 36 36 35 33 32 31 31 31 31 31 30 29 29 27 23 19 16 19 21 22 23 24 23 21 18 14 7 8 15 20 20 18 18 21 24 25 25 25 26 26 26 26 26 26 26 26 26 26 25 24 23 24 25 26 26 26 26 27 28 29 30 31 32 32 32 32 32 31 31 31 31 30 30 29 29 28 28
25 25 26 28 31 33 35 37 37 37 37 35 33 32 31 30 30 29 28 27 25 24 22 15 10 9 13 16 18 20 23 22 19 17 15 9 7 12 20 22 21 20 21 23 23 23 23 24 25 26 27 27 28 28 28 27 25 24 24 24 24 25 25 25 26 27 29 31 32 33 34 34 34 33 32 32 31 31 30 30 29 28 28 27 27 27
27 28 31 33 34 35 36 36 36 36 35 34 33 32 30 29 27 25 22 22 22 19 14 10 9 9 10 11 12 17 23 21 18 17 17 14 10 10 17 20 20 18 19 21 22 22 23 24 26 28 28 28 27 27 25 24 22 22 23 24 24 25 25 27 29 32 34 36 36 36 36 35 35 34 33 32 31 30 29 28 28 27 26 25 25 25
29 31 32 33 33 34 34 34 34 33 33 32 32 31 30 28 24 20 18 21 22 18 10 9 9 9 9 9 12 18 23 22 19 18 18 16 10 8 15 17 17 17 17 20 23 25 25 24 25 25 25 24 23 21 20 19 20 21 22 23 24 26 28 31 34 36 37 37 36 36 36 35 34 34 33 32 31 30 29 27 26 25 24 23 23 23
31 32 32 32 31 31 31 31 31 30 30 30 29 29 28 26 23 21 22 23 21 16 10 8 9 10 10 10 15 20 22 21 19 17 16 13 9 10 16 17 17 17 17 17 18 21 22 21 21 20 20 19 17 15 15 17 18 20 21 23 25 27 29 32 34 34 35 35 35 35 34 33 33 32 32 31 30 29 28 26 24 23 22 21 21 22
31 31 30 29 29 28 28 28 28 28 28 28 28 27 26 25 24 25 26 24 20 14 9 9 10 10 10 11 12 13 14 16 16 15 13 9 8 11 17 18 18 18 16 11 9 10 13 16 17 17 16 15 16 16 17 19 20 21 22 23 24 25 27 29 30 32 33 34 34 33 32 31 31 31 30 30 29 28 27 25 23 22 21 20 20 21
30 29 28 28 27 26 26 26 26 26 26 26 25 25 24 24 25 25 25 22 18 16 14 12 12 12 11 10 8 7 6 14 17 16 15 11 11 13 17 17 18 19 17 11 7 5 6 9 13 17 16 17 19 20 21 22 22 22 22 22 22 23 25 27 29 31 32 31 30 28 26 26 27 27 26 26 26 25 25 24 23 22 21 20 20 20
28 27 27 27 26 26 25 25 25 25 24 24 23 23 22 23 24 24 22 21 20 19 19 18 18 18 16 12 10 8 8 17 21 20 17 14 15 17 18 16 17 18 17 15 10 6 6 5 10 17 18 19 20 21 22 22 22 21 20 20 20 22 25 27 29 30 30 27 22 16 13 14 17 19 19 19 20 21 22 21 21 21 20 19 18 17
27 27 27 27 26 26 25 25 24 24 24 23 23 23 22 22 22 22 21 21 21 21 21 21 21 20 19 16 14 13 16 22 23 21 19 17 16 16 17 17 17 17 17 17 15 12 9 6 9 14 18 19 20 20 21 21 21 19 17 17 19 21 24 26 27 27 24 19 13 8 7 5 4 5 7 10 13 16 17 18 19 20 19 17 16 15
27 27 27 26 26 25 25 24 24 24 24 23 23 23 22 21 21 21 20 20 21 23 23 24 23 21 18 14 12 14 21 24 24 22 20 19 17 16 18 17 16 16 15 13 14 14 11 10 8 9 11 17 19 20 20 20 19 17 16 16 17 19 22 25 25 22 18 13 9 12 15 15 13 11 8 5 6 10 13 16 18 20 20 20 19 18
26 26 26 25 25 25 24 24 24 24 24 23 23 22 22 22 22 22 22 22 23 24 25 26 26 25 22 16 12 13 21 25 25 24 23 22 20 19 18 17 16 15 12 9 8 8 7 9 9 8 7 11 15 19 19 18 16 15 16 16 17 18 21 22 21 18 13 8 9 15 19 20 21 21 19 17 14 13 13 15 17 19 21 22 22 22
25 25 25 25 24 24 24 24 24 24 24 23 23 23 23 23 23 24 24 25 25 26 27 27 28 27 26 22 20 20 24 27 27 26 25 24 23 21 18 17 18 16 12 9 8 7 7 7 9 10 10 8 10 14 17 16 14 13 14 15 17 19 20 19 18 14 8 5 9 15 18 21 22 24 24 24 23 22 20 19 19 19 20 21 22 23
24 24 24 24 24 24 24 24 24 24 24 23 23 24 24 24 25 26 26 27 28 28 29 29 28 28 27 25 25 27 28 29 28 27 27 26 25 23 20 19 19 18 14 12 10 8 7 8 8 9 9 8 7 7 11 15 16 14 14 14 16 18 17 16 14 10 4 5 11 15 17 19 21 22 24 25 26 26 26 25 24 23 22 21 21 22
23 23 24 24 24 24 24 24 24 24 24 25 25 26 26 27 27 28 28 28 29 30 30 28 27 27 26 26 27 29 30 31 31 30 30 29 27 25 23 20 20 19 18 16 14 11 8 8 8 8 7 7 8 10 13 15 15 15 14 15 15 15 13 12 11 7 4 7 12 15 17 18 20 21 21 23 24 25 26 26 25 25 25 24 24 24
22 23 23 24 24 24 24 24 25 25 26 26 27 27 28 28 28 28 27 27 28 28 28 27 26 25 25 26 28 29 30 31 31 31 30 29 27 25 23 21 20 19 19 17 16 14 11 8 7 7 7 7 9 12 15 15 14 13 13 13 12 10 8 9 9 7 4 8 12 15 17 18 19 20 20 21 22 22 23 23 23 24 25 26 26 26
23 23 24 24 24 24 24 25 26 27 27 28 28 28 28 27 27 26 26 26 25 25 26 26 25 24 24 25 25 26 28 28 28 28 27 27 26 24 22 21 19 18 17 16 16 15 13 11 9 9 8 7 7 8 10 14 14 13 11 9 6 5 8 9 9 7 4 8 12 14 16 17 19 19 20 20 21 21 20 20 20 21 22 23 24 24
23 23 24 25 25 26 26 26 27 28 28 28 27 27 26 25 25 25 25 25 25 24 23 24 23 23 23 22 23 23 24 25 25 25 25 25 24 22 20 18 17 16 16 16 16 15 15 13 12 11 11 10 9 9 10 13 14 12 9 5 3 5 7 9 9 7 5 9 12 15 16 17 19 19 20 21 21 20 20 20 19 19 19 20 20 21
24 24 24 25 26 26 27 27 27 28 28 27 26 26 25 24 24 25 26 25 25 23 23 22 22 22 22 23 23 22 21 21 21 22 21 20 19 17 17 16 15 15 15 14 14 15 15 15 14 14 13 12 10 9 9 12 12 9 4 2 3 5 6 7 8 7 7 9 12 15 17 17 18 19 20 20 20 20 20 20 19 18 18 18 18 18
24 24 25 26 26 27 27 27 26 26 26 25 25 25 25 25 25 25 26 25 24 22 21 21 21 21 20 20 21 20 19 19 19 18 16 14 13 14 14 14 14 14 13 13 13 13 14 15 15 15 16 15 13 10 9 9 7 3 0 1 2 3 2 5 6 7 8 11 13 16 17 17 18 19 20 21 21 21 21 20 20 19 19 19 18 18
24 25 25 26 26 26 26 26 25 25 25 25 25 25 25 25 25 26 25 24 22 21 21 21 21 20 18 17 17 18 17 16 16 14 12 11 11 12 13 13 13 13 13 12 12 12 12 13 14 15 15 15 14 12 10 7 3 1 2 2 3 3 2 3 3 5 9 12 15 16 17 18 19 20 21 22 22 21 21 21 22 21 21 21 22 22
24 25 25 26 25 25 25 25 25 26 25 25 24 24 25 25 25 25 24 21 20 21 21 21 19 16 12 13 14 15 15 15 13 11 9 9 10 11 11 11 11 12 12 12 12 11 10 10 11 13 13 14 14 12 9 5 1 2 3 4 4 3 3 3 3 5 8 11 14 16 17 19 20 21 20 20 20 21 21 21 21 21 22 22 23 23
24 25 25 25 25 25 25 26 26 26 25 25 24 24 25 25 25 24 22 20 20 21 21 21 17 12 8 10 12 13 13 12 11 9 8 9 10 10 10 10 10 11 11 11 11 11 11 10 10 11 11 10 9 6 3 0 2 3 3 4 5 4 3 4 4 6 9 11 13 15 18 20 21 20 18 17 18 20 21 21 21 21 22 22 23 23
24 24 25 25 25 25 25 26 25 25 24 24 24 24 25 25 24 23 21 21 20 20 20 19 16 12 9 10 10 10 9 9 9 10 10 10 10 10 11 11 11 11 11 11 10 10 9 8 8 9 8 6 3 1 2 3 3 3 3 4 5 4 3 4 5 7 10 12 13 15 18 19 19 18 16 16 17 18 20 22 22 22 22 22 23 24
25 25 25 25 25 25 25 25 24 24 24 24 25 25 26 25 23 21 21 21 20 19 18 16 14 12 11 12 12 11 9 8 8 9 10 11 11 11 11 11 11 10 10 10 9 8 6 5 6 7 7 5 3 2 3 4 4 4 4 5 5 4 3 4 6 8 11 13 14 15 16 16 16 15 14 14 15 15 17 20 22 22 22 22 23 23
25 25 25 25 24 23 23 24 24 24 23 24 25 25 26 25 23 21 20 20 19 17 15 14 12 10 8 10 11 11 9 8 8 9 10 10 11 11 11 11 11 10 9 9 8 6 4 4 7 11 11 9 6 4 3 4 4 5 5 6 5 5 4 5 7 10 13 14 15 16 16 15 15 15 15 13 12 12 14 17 19 21 22 23 23 23
25 25 25 25 24 24 23 24 24 23 23 24 24 25 24 23 21 20 19 19 17 16 15 14 12 9 7 8 9 9 8 7 8 9 10 11 11 12 12 11 10 9 8 6 5 5 4 1 5 10 13 14 11 7 5 4 4 5 6 6 6 5 5 5 8 11 14 15 17 17 17 16 15 15 16 14 12 12 13 14 16 18 21 22 22 22
25 25 25 24 24 24 24 24 24 23 24 24 24 23 22 21 20 19 18 18 16 15 14 13 12 10 8 8 8 8 7 7 7 8 9 11 11 11 11 10 10 8 6 4 3 2 2 1 1 5 10 15 15 12 8 6 4 5 5 6 6 5 5 6 9 13 15 16 17 18 17 16 14 14 14 13 11 9 10 10 12 15 18 20 21 21
Wind_Direction
294 295 297 297 297 296 294 294 295 296 297 298 298 299 300 301 301 301 300 300 299 298 297 295 294 293 292 291 291 290 289 288 288 287 286 286 286 287 287 287 287 286 286 286 286 286 286 286 286 286 286 287 288 289 289 289 288 287 284 281 277 273 271 269 267 265 264 263 262 262 261 260 258 257 256 255 253 251 249 248 248 247 247 248 249 250
295 296 296 296 295 294 293 293 294 294 295 297 298 299 301 302 302 302 302 300 299 298 297 296 295 294 293 292 291 290 289 288 288 287 286 286 285 284 284 284 283 283 284 284 284 284 285 285 286 287 288 288 289 288 287 287 287 286 286 285 282 279 278 275 272 269 265 263 262 262 260 259 258 257 256 256 255 254 252 251 249 247 246 246 246 247
297 297 297 296 295 294 293 294 294 294 295 296 298 300 302 303 303 302 302 301 300 298 297 296 295 294 293 292 291 290 289 288 288 287 287 286 285 284 283 282 282 283 283 284 284 285 286 287 288 288 288 288 287 286 285 285 285 285 285 284 283 281 280 278 276 274 271 269 267 265 262 260 258 256 255 255 256 256 256 254 252 249 247 246 245 245
297 297 298 298 297 295 293 294 294 295 295 296 298 300 302 302 302 301 301 300 300 299 297 296 295 294 293 292 291 290 289 288 288 287 287 286 285 284 283 283 283 283 285 286 287 288 288 288 288 288 287 287 286 285 285 284 284 284 283 282 281 280 280 279 278 277 275 274 272 270 267 263 259 256 255 254 255 256 256 256 254 252 250 248 246 245
296 297 298 298 297 295 294 294 295 296 297 298 299 301 302 301 301 301 301 300 300 299 298 297 295 294 293 292 291 290 289 288 287 287 286 286 285 285 285 285 286 287 288 288 289 289 288 288 287 287 287 287 286 286 285 285 284 283 282 281 280 279 278 278 277 276 275 274 273 273 271 268 263 258 255 254 255 255 256 255 255 254 252 250 247 245
294 295 296 296 295 295 295 294 295 296 297 299 300 301 302 302 301 301 301 300 300 299 298 297 295 293 292 290 289 289 288 287 287 287 286 286 286 287 287 288 289 289 289 288 288 288 287 287 287 287 287 287 287 287 287 286 284 283 282 281 279 278 277 276 275 273 272 272 272 272 271 269 265 261 257 255 255 255 256 255 255 254 254 252 250 247
293 293 294 294 294 293 293 293 295 296 299 301 302 303 303 302 301 301 300 299 299 298 297 295 294 292 291 290 290 290 290 290 289 289 288 288 288 288 288 289 288 288 288 287 287 287 287 287 288 288 288 288 288 288 287 285 284 282 281 280 278 277 276 275 274 273 272 271 270 270 269 267 264 261 258 256 255 256 256 256 255 255 254 253 252 250
292 293 294 295 295 295 294 295 298 300 302 303 304 304 304 303 301 300 299 298 297 296 295 294 293 292 292 292 293 293 293 292 292 291 291 290 290 289 289 289 288 288 287 287 287 287 287 288 288 288 289 289 288 287 285 284 282 281 280 279 277 276 274 273 272 272 271 271 270 269 267 264 261 259 257 256 257 257 257 257 256 255 255 254 253 252
293 295 297 298 299 301 301 301 301 302 304 304 304 303 303 301 300 299 298 297 296 295 294 294 293 293 293 294 294 294 294 293 292 292 291 291 290 289 289 288 287 286 286 286 286 286 286 287 287 288 288 288 287 286 284 283 284 286 286 283 280 277 274 272 271 270 270 269 269 267 265 262 259 258 257 258 259 259 260 259 258 257 256 254 253 252
298 300 303 304 304 303 303 302 302 303 303 302 301 299 298 298 298 298 297 296 296 295 294 293 293 293 294 294 294 294 294 293 292 291 289 288 287 286 285 284 284 284 283 283 283 284 284 285 286 287 288 288 287 286 287 290 293 294 293 292 288 283 279 275 272 269 267 266 266 265 262 259 258 258 259 261 262 262 262 261 260 259 257 254 252 251
303 303 304 304 303 301 300 299 300 301 301 300 298 297 295 295 295 295 295 296 296 296 295 293 293 293 294 294 294 294 294 293 291 289 287 286 285 284 283 282 281 281 281 281 281 282 283 284 286 287 287 287 287 288 289 291 292 292 290 289 287 286 283 281 276 271 267 264 262 261 258 257 257 259 262 263 264 264 264 263 262 260 258 255 253 251
301 301 301 301 300 300 299 298 299 300 300 299 298 297 296 295 295 295 295 296 296 296 295 294 293 292 292 293 293 293 292 291 289 288 287 287 286 286 286 285 285 284 284 284 285 285 285 286 285 285 285 286 286 287 288 288 288 288 286 284 283 282 282 282 280 276 269 263 259 257 255 255 257 261 263 265 266 266 266 264 263 262 259 256 254 252
297 299 299 299 300 299 299 299 299 299 298 297 296 296 297 297 298 297 295 295 294 294 294 293 292 291 291 291 291 291 291 290 289 289 289 290 291 292 293 294 295 296 294 293 291 290 288 286 285 285 285 285 285 285 286 287 287 286 285 283 282 281 280 281 281 278 273 264 258 255 254 256 260 262 264 266 266 267 266 265 264 262 261 258 255 254
296 297 299 299 299 299 299 298 297 296 295 295 295 296 298 299 299 298 296 294 293 292 292 292 291 291 291 290 290 289 290 292 294 295 295 294 295 296 296 296 296 296 294 292 290 288 286 285 285 285 285 285 285 285 286 286 286 286 285 284 283 282 281 280 281 280 278 273 267 263 262 263 264 265 266 267 267 267 266 265 264 263 261 260 258 256
294 296 297 296 297 298 298 296 294 293 294 296 299 300 300 299 298 297 295 293 292 292 292 291 290 289 288 287 287 288 291 294 297 298 298 297 297 296 295 293 292 291 289 287 286 285 284 284 284 284 284 284 284 284 285 285 285 285 285 285 285 284 282 281 280 280 280 277 274 271 269 269 269 269 269 269 269 268 267 266 265 263 262 261 260 259
294 296 295 296 296 296 295 293 291 292 296 300 302 302 301 299 297 296 294 293 293 292 292 290 288 286 285 285 289 295 297 298 299 298 298 297 297 296 295 293 292 290 289 287 286 285 284 284 283 283 283 283 283 283 284 284 284 284 284 284 284 285 284 283 281 280 278 276 275 273 272 272 272 272 272 272 271 270 269 267 266 264 263 262 261 260
296 298 298 297 296 294 292 289 290 294 299 302 302 301 299 297 296 295 294 292 292 291 289 283 280 283 291 297 300 302 303 301 300 299 298 298 297 297 297 295 293 292 290 287 285 284 283 283 282 282 282 282 282 283 284 284 283 283 283 283 283 283 282 281 280 278 277 276 275 274 274 274 275 275 275 275 273 272 270 268 266 265 264 263 262 262
300 301 300 297 294 291 289 289 293 298 301 302 301 300 298 296 294 293 292 290 289 286 281 277 279 289 301 303 303 303 303 301 300 299 299 297 297 297 296 294 291 289 287 285 283 282 281 281 281 281 281 282 283 284 285 284 284 283 282 281 282 283 284 283 281 279 278 277 277 276 276 277 277 277 276 275 274 272 271 269 267 266 265 264 263 262
300 299 298 295 291 288 288 291 296 300 301 301 300 299 297 295 293 292 290 288 285 282 279 282 286 293 298 298 300 300 301 300 299 299 298 296 295 295 294 291 289 287 285 283 282 281 281 281 280 281 281 284 286 289 289 288 287 287 288 289 291 292 292 290 287 284 282 281 280 280 280 279 278 277 276 274 273 271 270 269 268 267 266 264 263 263
296 295 293 291 288 287 289 293 297 299 300 300 299 297 294 293 291 290 288 286 284 283 284 290 295 297 299 298 297 297 298 298 298 297 294 292 292 292 291 290 288 285 283 281 281 281 282 283 283 285 288 292 296 298 298 298 301 304 303 302 300 297 293 290 287 286 284 284 283 283 282 281 279 277 275 274 272 270 269 268 267 266 265 264 264 263
291 290 288 286 286 288 292 294 296 298 299 300 299 296 293 291 290 289 287 287 287 289 293 296 298 299 298 296 294 294 295 297 296 294 290 287 287 288 290 289 286 283 281 279 280 283 287 291 293 294 296 297 299 298 297 299 302 304 302 297 293 291 290 289 288 288 287 286 286 284 283 281 279 277 275 273 271 269 268 266 266 265 264 263 262 262
286 285 285 284 285 288 291 294 296 298 300 300 298 295 292 292 292 291 292 293 294 296 298 298 298 296 294 291 289 290 293 294 292 288 285 282 285 288 289 289 285 282 280 281 287 294 298 298 297 296 296 296 295 294 293 295 296 295 293 290 290 290 291 292 291 290 289 288 286 285 283 282 280 277 275 273 270 268 266 265 264 263 262 261 260 260
283 281 282 284 286 290 293 296 299 300 301 298 295 292 291 291 292 292 293 294 295 295 296 296 294 291 288 286 286 289 293 294 291 287 285 281 285 287 287 286 284 285 288 293 298 301 301 300 298 297 297 298 297 296 296 295 294 293 291 291 290 291 291 291 290 289 287 286 285 284 283 282 280 278 275 273 270 267 265 264 263 262 261 260 259 258
281 281 283 287 291 295 298 300 300 300 299 297 294 292 291 289 288 288 289 290 291 292 292 291 288 285 284 285 289 292 295 296 293 289 284 276 278 282 284 287 290 293 295 297 299 300 300 299 298 298 298 299 298 298 299 298 297 295 293 291 289 288 288 288 288 287 287 287 287 286 285 284 282 280 276 273 270 267 265 263 262 261 259 258 257 257
285 286 289 294 297 299 300 300 299 298 297 296 295 293 292 290 289 288 289 289 289 288 287 283 280 280 286 291 294 296 297 297 294 289 283 276 278 284 289 295 299 299 296 295 296 297 298 297 296 297 297 298 298 297 296 295 293 292 290 288 287 288 289 290 291 291 292 292 291 290 288 286 284 281 277 274 270 267 264 262 260 259 258 258 257 257
295 297 299 300 301 300 299 298 297 296 296 295 294 293 292 292 291 290 289 288 286 284 282 279 277 284 293 296 297 297 298 297 295 291 289 290 292 293 294 295 295 294 293 294 295 297 297 297 296 296 296 294 293 291 290 289 288 287 287 287 289 292 295 296 297 297 297 296 294 292 289 286 284 281 277 274 270 267 264 261 259 258 258 258 258 258
305 304 303 302 301 301 300 299 298 297 296 295 294 293 292 292 291 290 288 287 285 283 281 282 288 294 298 297 296 296 297 297 297 297 297 297 294 290 291 293 294 295 295 296 297 297 297 296 294 293 292 290 289 288 287 288 289 289 290 293 297 299 301 301 300 299 298 297 295 292 290 287 284 281 276 273 269 266 263 261 259 257 257 256 256 256
309 306 305 303 302 301 301 300 299 298 297 296 295 294 292 291 290 289 289 289 288 286 285 291 297 301 299 296 295 295 296 296 297 298 299 294 287 281 289 294 297 299 299 298 297 296 294 292 291 290 289 288 287 289 292 295 296 297 298 300 302 302 301 300 299 299 298 297 295 293 290 287 284 280 275 271 268 265 262 259 258 256 255 253 252 251
310 308 307 305 304 303 302 301 300 298 297 296 295 294 292 290 289 288 288 289 289 290 293 298 302 302 299 296 295 294 294 294 296 298 299 292 284 284 291 296 299 299 299 299 298 296 293 290 289 289 289 292 297 303 307 306 305 303 302 301 300 300 299 299 299 299 298 298 296 294 291 287 283 278 274 270 266 263 260 257 255 253 251 249 248 247
313 312 309 308 306 305 303 302 300 299 297 296 294 293 291 289 287 286 285 287 291 297 304 306 304 300 297 295 293 291 290 293 297 302 303 296 286 289 295 297 297 297 299 300 299 296 293 292 292 292 296 304 310 311 310 306 303 300 299 299 299 299 299 300 301 301 302 301 300 297 293 288 283 278 273 267 263 260 257 254 251 248 247 246 246 246
315 313 311 309 308 306 304 302 301 299 298 296 294 292 291 289 287 285 286 291 298 305 307 305 300 296 293 292 291 288 289 295 299 304 305 298 291 291 295 295 295 295 296 296 296 297 298 296 296 297 300 304 304 303 301 300 298 296 296 298 299 301 302 303 304 306 307 306 304 299 293 286 281 276 270 264 258 253 250 248 246 244 243 243 243 242
314 312 310 308 307 306 304 302 301 300 298 297 295 294 292 290 288 288 292 298 303 305 302 298 294 291 287 283 281 283 288 294 298 302 304 298 292 291 292 292 292 293 292 289 287 289 296 299 298 298 298 299 299 298 297 296 294 294 295 297 300 302 304 306 309 310 311 310 309 308 301 289 281 275 267 258 249 244 242 240 239 237 235 232 229 227
312 310 308 307 306 305 303 302 301 301 300 299 299 298 296 293 292 293 297 299 300 299 296 292 290 287 284 280 279 281 287 292 296 300 302 298 294 291 292 292 292 292 292 288 283 280 281 285 294 296 296 296 296 296 296 295 293 292 292 296 300 303 306 309 311 311 311 314 327 359 21 6 324 285 260 244 236 231 230 228 226 221 214 206 198 191
310 309 307 306 305 305 304 303 303 302 302 301 301 301 300 298 298 299 299 298 296 294 291 288 287 285 283 282 282 285 288 292 295 298 299 297 293 292 293 292 291 291 291 288 284 282 280 281 287 294 296 297 297 296 295 294 292 290 291 297 301 305 307 310 312 312 312 320 360 43 58 62 64 68 81 120 172 192 199 202 200 195 189 179 168 156
309 308 307 307 306 306 305 305 305 304 304 303 302 302 302 302 301 300 299 297 294 292 289 287 283 281 280 282 286 289 291 293 295 296 295 293 291 291 291 290 289 289 288 286 285 284 282 283 286 292 296 298 297 296 294 292 290 291 295 301 304 306 308 311 312 311 313 332 29 54 62 65 68 70 76 85 100 120 140 155 162 165 163 160 152 143
309 308 307 308 308 307 307 306 306 306 305 304 304 304 303 303 302 300 298 297 295 292 289 284 280 277 277 279 283 287 290 292 293 292 290 288 288 288 288 287 287 286 286 284 282 281 282 286 289 291 292 292 294 295 294 293 294 297 302 306 308 309 310 313 315 315 317 6 52 60 65 67 69 72 75 80 87 95 104 113 122 129 134 137 137 134
308 307 308 308 308 308 307 307 307 307 307 306 306 305 304 302 301 300 298 296 295 293 289 284 280 277 277 278 281 283 286 288 288 288 286 286 285 285 284 284 283 282 280 280 281 283 285 287 289 288 287 285 287 292 295 297 299 301 304 307 310 312 313 317 322 326 343 57 68 69 70 71 72 75 78 81 84 88 91 94 98 103 108 112 116 119
308 308 308 308 308 308 308 307 307 307 307 307 306 305 304 302 300 298 297 294 292 290 288 283 281 280 280 281 281 282 284 285 285 285 284 284 283 281 280 280 280 279 278 278 280 283 286 286 286 286 285 283 284 287 292 296 298 300 303 306 308 310 314 324 332 343 39 77 78 76 75 75 76 77 79 81 82 84 85 86 89 92 96 97 99 103
308 307 307 308 308 308 307 307 307 307 307 306 305 304 302 301 298 296 294 292 290 287 284 282 282 283 284 285 285 285 285 285 285 284 284 282 280 279 278 278 279 279 279 277 277 277 278 278 279 282 284 286 286 287 289 292 294 297 303 306 308 311 321 332 339 351 51 83 84 81 78 77 76 76 76 78 80 80 81 82 85 89 92 92 93 94
307 307 307 307 307 307 306 306 305 305 305 304 303 302 302 301 299 297 295 293 290 287 285 286 286 287 288 288 287 286 286 285 285 284 283 280 279 278 277 277 278 278 278 276 274 272 271 271 272 274 276 280 284 286 287 288 289 293 299 305 311 330 350 349 346 355 55 87 89 85 81 78 77 76 76 76 77 78 81 83 85 88 91 93 95 95
307 306 306 307 307 306 305 305 305 305 304 303 302 302 302 301 301 301 299 298 294 291 289 290 292 293 292 290 288 287 285 284 284 283 282 280 279 278 277 275 275 275 276 274 272 269 267 267 269 271 272 273 276 278 279 281 283 286 292 300 313 328 345 355 357 6 54 84 89 87 85 82 79 78 77 76 76 78 82 85 86 87 89 93 98 102
306 306 306 306 306 306 305 304 304 304 304 303 303 303 303 302 302 302 302 300 297 295 294 297 299 300 299 296 294 291 287 283 282 282 282 280 279 277 276 275 275 275 275 274 272 269 267 266 267 268 269 270 271 272 275 278 279 279 281 301 312 318 339 3 13 24 50 76 86 88 88 85 83 80 79 77 76 78 81 83 84 85 86 88 91 96
306 305 305 305 305 305 305 304 304 304 304 304 303 303 303 302 302 301 300 299 297 296 299 302 304 303 301 298 297 295 291 287 286 285 284 281 279 278 278 277 276 276 275 275 275 273 271 268 266 265 265 267 268 271 274 276 276 272 87 3 322 312 325 356 14 37 60 78 87 89 89 88 86 84 81 79 77 78 78 79 80 81 82 84 84 85
305 304 304 304 305 306 306 306 306 306 306 305 304 303 303 302 302 301 299 297 296 299 304 307 307 304 299 297 296 296 296 294 294 293 289 284 283 283 281 280 279 278 277 275 275 276 277 273 270 267 267 267 266 266 267 265 256 176 74 40 9 353 351 346 12 47 70 81 86 89 90 91 90 86 82 78 76 76 76 77 78 79 81 84 86 87
305 305 306 306 307 307 307 307 307 307 306 306 304 304 305 304 303 302 299 297 299 304 309 310 308 303 298 297 298 300 300 300 301 300 295 292 291 288 284 282 281 282 280 277 275 275 277 278 278 278 275 270 265 262 261 252 206 112 74 63 55 35 5 6 48 75 81 84 86 89 92 94 92 87 82 76 73 71 72 74 75 77 81 85 88 90
307 307 308 308 308 308 307 307 307 307 307 306 306 305 306 306 304 302 299 300 304 309 310 309 305 300 294 298 300 302 302 305 308 310 307 303 299 295 291 287 286 287 288 286 284 281 279 281 285 287 285 276 268 264 270 163 109 99 85 79 73 60 39 38 60 81 91 92 91 93 95 95 92 88 82 77 71 69 70 71 73 75 79 84 88 91
309 309 308 309 308 308 307 307 307 308 308 308 307 307 307 306 304 302 302 305 308 310 309 306 302 297 295 297 299 301 304 309 313 315 315 313 310 306 302 298 295 294 294 293 293 293 295 298 299 300 297 290 288 323 34 58 75 88 92 90 84 71 43 31 50 78 93 96 97 98 98 96 93 89 86 82 76 70 68 69 72 76 80 84 87 90
309 309 309 308 308 307 307 307 308 308 308 308 308 308 307 306 304 304 306 310 310 309 306 303 300 297 298 298 299 303 309 316 318 319 318 318 316 314 311 308 304 302 300 297 296 299 311 337 352 355 349 340 339 10 39 49 59 72 82 88 88 80 56 37 55 77 90 95 98 100 100 97 96 95 93 88 82 74 69 68 71 76 81 85 88 90
309 308 308 308 307 307 307 308 308 308 308 308 308 308 307 306 305 306 309 311 310 306 303 301 301 300 300 302 305 310 317 321 321 320 321 321 320 319 317 315 312 308 301 293 288 285 292 2 32 36 34 26 17 15 27 43 55 65 72 80 84 81 67 54 64 77 86 91 94 96 96 96 98 100 99 94 88 81 74 69 71 76 82 87 90 92
309 307 308 308 308 308 307 308 308 307 307 306 306 306 306 307 308 310 312 311 309 306 304 303 303 303 302 306 314 321 327 327 325 324 324 325 324 322 321 320 318 313 302 285 272 260 250 282 45 45 43 40 36 30 25 34 55 68 72 71 73 76 74 66 69 78 85 89 91 92 92 92 94 96 97 96 93 87 82 74 71 74 82 87 90 93
309 308 307 308 308 308 307 307 307 306 306 306 305 305 305 307 311 314 314 312 310 307 306 306 307 308 310 317 323 329 332 331 328 327 327 328 327 325 324 324 324 320 311 294 273 261 248 225 70 49 43 40 39 39 35 30 47 71 72 64 64 70 74 73 76 81 85 88 90 91 90 88 88 90 94 96 96 92 86 79 72 73 82 87 91 93
Height
653 650 648 647 645 643 639 638 637 635 631 630 628 626 624 623 621 619 618 616 614 612 610 608 605 603 601 598 597 595 594 593 591 590 588 587 585 584 583 581 580 578 577 575 574 573 571 570 569 568 567 566 565 564 564 563 563 562 561 560 560 560 559 559 559 559 558 558 558 558 558 558 559 560 560 561 561 562 563 563 564 565 566 566 567 568
652 649 648 646 644 641 637 636 635 634 631 628 627 625 623 621 619 618 616 614 613 611 608 606 603 601 598 596 594 593 591 590 588 587 585 584 583 581 580 578 577 575 574 573 571 570 568 567 566 565 564 563 563 562 561 560 560 559 558 558 557 557 557 557 556 555 555 554 554 555 555 555 556 557 558 558 558 559 559 560 561 561 562 563 563 564
651 648 646 644 643 640 636 634 633 633 630 628 626 624 623 621 618 617 615 613 610 608 607 604 602 599 596 594 592 590 589 587 586 584 583 581 580 578 577 575 574 572 571 569 568 567 566 564 563 562 561 561 560 559 558 558 557 556 555 555 554 554 554 553 553 552 552 552 552 552 552 553 553 554 554 555 556 556 557 557 558 558 559 560 560 561
651 648 645 643 641 638 636 634 632 631 629 628 625 623 622 620 618 615 613 611 609 607 604 603 600 598 595 592 590 588 586 585 583 582 580 578 577 576 574 572 571 569 568 566 565 563 563 562 561 559 558 558 557 556 556 555 554 553 553 552 552 551 551 550 550 549 549 549 549 549 550 550 550 551 552 552 553 553 554 554 555 555 556 557 558 558
650 647 644 642 639 637 635 633 632 630 629 627 625 623 621 619 616 614 612 610 608 605 603 601 598 596 593 591 588 586 584 583 581 579 578 576 574 573 571 569 568 567 565 563 562 561 560 559 558 557 556 555 554 553 553 552 552 551 550 550 549 548 548 548 547 547 547 546 547 547 547 547 547 548 548 549 550 550 551 552 552 553 553 554 555 556
648 646 644 641 638 636 634 633 632 630 628 625 623 621 619 617 615 613 611 609 607 604 602 599 597 595 592 589 586 584 582 580 578 576 575 573 571 570 568 567 565 564 563 561 559 558 557 556 555 554 553 552 551 550 550 549 548 548 548 547 546 546 545 545 545 544 544 544 544 544 544 544 544 544 545 546 547 548 548 549 550 550 551 551 552 553
646 644 643 640 638 636 635 633 631 629 626 623 620 618 617 616 614 612 610 608 606 603 600 598 595 593 590 587 584 582 579 577 576 574 572 570 569 567 566 564 563 562 560 559 557 556 554 553 552 551 550 549 548 547 547 546 545 545 544 544 543 543 543 542 542 542 541 541 541 541 541 541 541 542 542 543 544 545 545 546 547 548 548 548 549 550
644 642 641 640 638 635 633 631 629 627 625 622 620 617 615 614 613 611 608 607 605 602 599 595 593 590 588 585 583 580 578 576 573 572 570 568 567 565 564 562 561 559 558 556 555 553 552 551 549 548 547 546 545 544 543 543 542 542 541 541 540 540 540 539 539 539 538 538 538 538 538 538 538 539 539 540 541 542 543 543 544 545 545 546 546 547
644 642 641 640 638 635 632 629 627 626 624 622 620 618 615 613 610 608 607 604 602 600 597 593 590 587 585 583 581 579 577 575 573 570 568 567 565 563 562 560 558 557 555 554 552 551 549 548 547 545 544 543 542 541 540 540 539 539 538 538 537 537 537 537 536 536 536 535 535 535 535 535 536 536 537 537 538 539 539 540 541 542 542 543 543 544
645 643 641 638 637 635 631 627 625 624 624 622 620 618 616 613 609 606 604 601 599 597 595 592 589 586 583 581 580 578 576 573 571 569 568 566 563 562 560 558 557 555 553 551 550 548 547 545 544 543 542 541 540 538 538 537 537 537 536 536 535 534 534 533 533 533 533 532 532 532 532 532 533 533 534 535 535 536 537 538 538 539 539 540 541 541
645 643 640 637 635 633 631 628 625 623 622 620 618 616 614 612 609 605 602 598 596 594 592 590 588 585 583 580 578 576 575 572 569 567 565 563 561 559 558 556 554 552 551 549 547 546 544 543 542 541 540 538 538 537 536 535 535 534 534 533 533 532 532 531 530 530 529 529 529 529 529 530 530 531 532 533 533 534 534 535 535 536 537 537 538 538
643 641 638 636 633 631 629 627 624 622 620 618 616 613 611 610 608 605 601 597 594 592 590 588 586 584 582 580 577 575 573 571 568 565 563 561 559 558 555 553 552 550 548 547 545 543 542 541 539 538 537 536 535 534 534 533 533 532 531 531 530 530 529 528 528 527 526 526 526 526 527 527 528 529 530 530 531 531 532 532 533 533 534 534 535 535
641 639 637 635 633 630 628 625 623 620 618 617 614 612 609 607 606 603 601 597 594 592 590 587 585 583 581 579 577 574 572 569 567 564 562 560 558 556 554 553 551 549 548 546 544 542 540 538 537 536 535 533 533 532 531 531 530 529 529 528 528 527 527 526 526 525 524 523 523 524 524 525 526 527 528 528 529 529 530 530 530 531 531 532 532 532
639 637 636 633 631 629 627 624 622 619 617 616 614 611 609 606 604 602 599 596 593 591 589 587 583 581 578 577 575 573 571 568 566 563 561 559 558 556 554 552 550 548 547 545 542 540 538 536 535 533 532 531 530 529 528 528 528 527 527 526 526 525 525 524 523 523 522 522 522 523 523 524 525 525 526 526 526 527 527 528 528 528 528 529 529 529
637 635 633 631 629 628 626 623 621 618 616 614 613 610 608 606 603 601 598 595 593 590 588 585 582 579 576 575 573 572 570 567 565 563 560 558 556 555 553 551 548 546 545 543 540 537 536 534 533 531 529 528 527 527 526 526 526 525 525 524 524 523 523 522 522 521 521 521 521 521 522 523 523 523 523 523 524 524 524 525 525 525 526 526 526 526
635 634 632 630 628 626 624 622 620 617 615 613 612 610 608 605 602 600 598 595 592 590 587 584 580 576 574 573 571 570 568 566 563 561 558 555 553 552 552 549 547 544 542 540 538 535 533 532 531 529 527 526 525 524 524 524 523 523 523 522 522 521 521 520 520 520 519 519 520 520 520 520 521 521 521 521 521 521 522 522 522 523 523 523 523 523
633 632 630 628 626 624 622 620 618 616 614 612 611 609 607 605 602 600 598 595 592 589 586 583 578 574 571 568 568 568 567 565 562 559 557 553 551 550 550 548 546 543 540 538 536 534 532 530 528 527 525 523 523 523 522 522 521 521 520 520 520 519 519 519 518 518 518 518 518 518 518 518 518 518 518 518 518 518 518 519 519 520 520 520 520 520
632 631 629 627 625 622 620 618 616 614 613 612 610 608 606 604 602 599 597 594 592 588 584 580 577 573 570 567 565 564 565 564 561 558 556 553 551 549 549 548 545 542 539 537 534 532 530 528 527 525 523 522 521 521 520 520 519 519 518 518 517 517 516 516 516 516 516 516 516 516 516 515 515 515 515 515 515 515 515 516 516 517 517 517 517 517
631 629 628 625 623 621 618 617 615 614 613 611 609 607 604 602 600 598 595 593 589 586 582 578 575 572 570 567 564 563 564 563 561 558 556 553 550 548 547 546 543 540 537 534 532 530 528 527 525 523 522 521 520 519 519 518 518 517 516 515 514 514 514 513 513 513 513 513 513 513 513 513 512 512 512 512 512 512 513 513 513 513 514 514 514 514
629 628 626 624 622 619 617 615 614 613 612 611 609 606 603 600 598 595 593 590 587 583 580 577 574 571 569 566 563 562 562 562 561 558 555 552 549 547 545 544 541 538 535 532 530 528 527 525 523 522 520 519 518 518 517 516 516 515 514 514 513 513 512 512 511 511 510 510 510 510 509 509 509 509 509 509 510 510 510 510 510 511 511 511 511 511
627 625 624 623 621 618 615 613 613 612 611 610 608 605 602 598 595 593 590 587 584 581 578 575 573 570 568 566 563 561 561 561 560 557 554 551 547 544 543 541 539 536 533 530 528 527 526 524 522 521 519 518 517 517 516 515 514 513 513 513 512 511 511 510 509 509 508 508 507 507 506 506 506 506 507 507 507 507 507 508 508 508 508 508 508 508
626 623 621 620 619 617 614 613 612 611 610 609 607 604 601 597 594 591 588 586 583 579 577 574 572 569 567 564 561 559 560 560 559 557 553 549 544 541 540 539 537 534 531 529 527 526 525 523 521 519 518 517 516 515 514 513 512 512 511 511 510 510 509 508 508 507 506 505 504 504 504 504 503 504 504 504 504 504 504 505 505 505 505 505 505 505
624 621 619 618 617 616 614 612 610 609 608 607 605 603 599 597 593 590 587 585 582 579 576 573 570 568 565 562 560 558 558 558 557 556 553 548 543 539 538 537 535 533 530 528 526 525 523 522 520 518 516 515 514 514 513 512 511 510 510 509 509 508 508 506 505 504 504 503 502 501 501 501 500 500 500 501 501 501 501 501 502 502 502 502 502 502
621 619 618 616 615 614 613 611 609 607 606 604 602 600 597 595 592 589 586 583 580 577 574 572 568 565 562 559 558 557 556 556 556 554 552 548 543 538 536 535 533 531 528 527 526 525 523 521 518 517 515 514 513 513 512 511 510 509 509 508 507 506 505 504 503 502 501 500 500 499 498 498 497 497 497 497 497 498 498 498 498 498 499 499 499 499
619 617 616 615 613 613 611 609 608 606 604 602 600 597 595 592 589 587 583 581 578 576 573 569 565 562 558 557 556 555 554 554 554 553 550 546 541 537 535 535 534 532 528 526 526 525 523 520 518 516 515 513 512 511 511 510 509 508 507 506 505 504 503 502 501 500 499 498 497 496 495 495 494 494 494 493 494 494 494 494 494 494 495 495 495 495
618 616 615 613 612 611 609 607 605 603 602 600 598 595 593 590 587 584 581 578 576 573 570 567 563 559 557 556 554 553 553 552 552 551 549 546 541 537 535 535 534 532 528 526 525 524 523 520 518 516 515 513 511 510 509 508 507 506 505 504 503 502 501 500 499 498 497 495 494 493 492 491 491 490 489 489 489 489 489 490 490 491 491 491 492 492
616 615 613 612 610 608 606 604 602 600 599 597 596 594 591 588 585 582 578 576 573 571 568 564 561 558 556 555 553 552 551 551 550 549 548 547 543 538 535 534 534 532 529 526 525 524 523 520 518 515 514 512 509 508 506 505 504 504 503 502 500 499 499 497 496 495 494 493 491 490 489 487 486 486 485 485 485 485 485 485 486 487 487 488 489 489
615 613 611 609 607 605 603 601 599 598 596 594 593 591 589 587 584 580 576 574 572 569 566 563 561 558 556 553 552 550 550 549 549 548 548 546 543 538 535 534 533 532 530 527 524 522 522 519 517 514 512 510 508 506 505 504 503 502 501 500 499 498 497 495 494 493 491 489 487 486 484 483 482 481 481 480 480 480 481 481 482 483 484 485 486 486
612 610 608 607 605 603 601 599 597 595 593 592 590 589 587 585 583 579 576 573 571 568 565 563 561 559 557 554 551 549 548 548 548 548 547 545 541 537 535 534 533 532 530 527 523 520 518 517 515 513 511 509 507 506 504 504 503 501 500 499 498 496 495 494 492 490 488 486 484 482 480 478 477 477 476 476 476 476 477 477 479 480 481 482 483 483
609 608 606 604 602 600 599 597 595 593 591 589 588 587 585 583 581 578 575 572 570 568 565 563 561 560 558 554 551 547 545 545 546 546 546 544 540 537 535 534 533 532 531 528 523 518 515 513 513 512 510 509 507 506 505 504 503 501 499 498 496 495 493 491 489 487 485 483 480 478 475 474 473 472 472 472 472 472 473 474 476 477 478 479 479 480
608 606 604 602 600 598 597 595 593 591 589 587 585 584 583 581 579 576 573 571 569 568 566 564 562 560 558 555 551 547 543 543 544 545 545 543 539 536 535 534 533 531 531 530 526 520 514 511 510 511 510 509 508 506 505 504 502 500 499 497 495 493 491 489 487 485 482 480 477 474 472 470 469 468 467 468 468 469 470 472 473 475 476 477 477 478
607 605 603 601 599 597 595 593 591 589 587 585 583 582 580 578 576 574 572 570 569 568 566 564 562 560 557 555 552 547 543 542 543 544 544 543 539 536 535 534 532 530 530 530 528 524 518 512 510 510 510 509 508 506 505 504 502 500 498 497 494 492 490 488 486 484 481 479 476 473 470 468 466 464 464 464 465 466 468 469 471 473 474 475 476 476
606 604 602 600 598 596 593 591 589 587 585 583 581 579 578 576 574 573 571 570 569 568 566 564 561 558 555 553 550 546 543 543 543 543 543 542 538 535 533 533 531 529 528 528 527 525 521 515 512 510 509 509 508 506 504 502 500 499 498 496 494 492 489 487 485 483 481 479 476 473 469 467 465 463 462 462 462 464 465 467 469 471 473 474 474 475
605 603 601 598 596 594 592 590 588 586 583 582 580 578 576 574 573 572 570 569 568 567 565 563 560 557 553 550 547 544 542 542 542 543 543 541 538 535 533 532 530 529 528 526 524 523 520 516 513 511 509 507 506 505 503 501 499 498 496 495 494 492 489 487 485 484 482 480 476 472 469 467 465 464 462 462 462 463 465 466 468 470 471 472 473 474
604 602 600 597 595 592 590 588 586 584 582 580 578 577 575 573 572 570 569 567 566 564 563 561 558 556 553 549 546 543 541 540 541 542 541 540 538 535 532 531 529 528 527 524 523 521 518 515 513 512 510 507 505 504 502 500 498 497 495 494 494 492 490 488 486 484 482 480 477 473 471 469 467 466 465 464 464 465 466 468 469 470 472 472 473 473
603 601 598 596 594 591 589 587 584 583 581 579 577 575 574 572 570 569 567 565 564 562 560 558 556 553 551 549 546 543 540 539 539 540 539 538 537 534 532 529 528 528 526 524 522 520 518 515 513 512 511 508 505 502 500 499 497 496 495 494 493 491 490 488 486 484 483 481 478 475 473 471 470 469 468 468 468 468 469 470 471 472 473 474 474 474
602 599 597 595 593 590 588 585 583 581 579 577 575 574 572 570 569 567 565 563 561 559 557 555 553 550 549 547 545 543 540 539 538 537 537 536 535 533 531 528 527 526 525 523 521 519 518 515 513 512 510 508 506 502 499 498 497 496 494 494 492 491 489 488 486 485 484 482 479 477 475 474 473 472 472 471 471 471 472 473 474 474 475 477 477 477
601 598 596 594 592 590 587 585 582 580 578 576 574 572 570 568 567 565 563 561 558 556 554 552 549 547 546 544 543 541 539 538 536 535 534 533 533 531 529 527 525 524 524 523 521 519 518 516 514 512 509 507 505 503 501 499 497 495 494 493 492 491 490 488 487 486 485 483 480 478 477 476 476 475 475 474 474 474 474 475 476 477 478 479 479 480
600 598 595 593 591 589 586 584 582 579 577 575 573 571 569 566 564 562 560 558 556 553 551 549 547 544 543 542 540 539 537 535 534 533 532 531 530 529 527 525 524 523 522 521 520 519 518 516 514 512 510 507 505 503 501 499 498 496 494 493 492 491 490 489 488 487 486 484 482 480 479 479 478 478 477 477 477 477 477 479 480 480 480 481 482 483
599 597 594 592 590 588 586 583 581 578 576 574 571 569 567 564 562 559 558 555 553 551 548 546 544 543 541 539 538 536 534 533 531 530 529 528 527 526 525 524 522 521 520 520 519 518 517 516 514 512 510 508 506 504 501 499 498 496 495 494 493 492 490 490 489 488 487 485 483 482 481 481 481 480 480 480 480 480 481 482 483 483 484 484 484 486
598 596 593 591 589 587 584 582 580 578 575 573 570 567 565 563 560 558 555 553 550 548 546 544 542 540 538 537 535 533 532 530 529 528 526 525 525 524 523 522 521 520 519 518 518 517 516 514 513 511 510 508 506 504 502 499 497 496 495 495 494 494 492 491 490 489 488 486 484 483 483 483 483 483 483 483 483 484 484 485 486 487 487 487 488 488
598 595 592 590 588 585 583 580 578 576 573 571 568 566 563 561 559 556 553 550 548 546 544 542 540 538 536 534 532 531 529 528 526 525 524 523 523 522 522 521 520 519 518 517 516 515 514 513 512 510 509 507 505 503 500 498 497 496 496 495 495 494 493 492 491 490 489 487 486 485 485 485 485 485 485 486 486 487 488 488 489 489 490 491 491 492
597 594 592 589 587 584 582 579 577 574 572 569 567 564 562 560 558 555 552 549 546 543 542 540 539 537 534 532 530 528 527 526 524 523 523 522 521 521 520 520 519 518 517 516 515 513 513 512 511 509 507 506 504 502 499 497 496 496 496 496 496 495 494 494 493 491 490 489 487 487 487 487 487 488 488 488 489 490 490 490 491 492 492 493 494 494
596 593 590 588 585 583 580 578 575 573 570 568 565 563 560 558 556 553 550 547 544 542 541 539 538 535 533 531 528 526 525 524 523 522 521 521 520 520 519 518 518 517 516 515 514 513 511 510 509 507 506 505 503 501 499 497 496 496 496 496 496 496 496 495 494 493 492 490 489 489 489 489 489 489 490 491 492 492 493 494 494 494 495 495 495 496
594 592 589 587 584 582 579 576 574 571 569 566 564 561 559 556 554 552 549 546 543 541 540 538 537 534 532 529 527 525 523 522 521 521 520 520 519 518 518 517 516 516 515 514 513 512 511 509 508 506 505 503 501 499 497 496 496 496 497 497 497 497 497 496 495 494 493 492 491 491 491 491 491 491 492 494 495 496 496 497 497 498 498 499 499 499
593 591 588 585 583 580 578 575 573 570 568 565 562 560 557 555 553 550 548 545 543 541 539 538 536 533 531 528 526 525 523 522 521 520 520 519 518 518 517 516 515 514 514 513 512 511 510 509 507 506 504 502 500 498 497 497 497 497 497 497 497 498 497 497 496 495 494 494 493 493 493 493 492 493 495 496 498 499 499 500 500 501 502 502 503 503
592 590 587 584 582 579 576 574 571 569 566 563 561 558 556 553 551 548 546 544 542 540 538 537 535 533 530 528 526 524 523 521 520 520 519 519 518 517 516 515 514 513 513 512 511 510 509 508 507 505 503 501 499 498 498 498 498 498 498 498 498 498 498 498 497 496 495 495 495 495 495 494 494 496 497 499 500 502 502 503 504 504 505 505 506 507
591 589 586 583 581 578 575 573 570 568 565 562 559 557 554 552 550 548 545 543 542 540 538 535 533 532 529 528 526 524 523 522 521 520 519 518 518 517 515 514 513 512 511 511 510 509 509 508 506 505 503 501 500 499 499 499 499 499 499 499 499 499 499 499 498 497 497 496 496 497 496 496 497 498 499 501 503 505 506 506 507 508 508 509 509 510
591 588 585 583 580 577 574 572 569 567 564 561 558 555 553 551 549 547 545 543 541 539 537 535 533 531 528 527 525 524 523 522 522 521 520 519 518 516 515 514 513 512 510 510 509 509 508 507 506 505 504 502 502 501 500 500 500 500 500 500 500 500 500 500 499 498 498 498 498 498 498 499 499 500 501 503 505 507 509 510 511 511 512 512 513 513
589 587 584 582 579 576 573 571 568 566 563 560 557 554 551 549 547 546 544 542 540 538 536 534 532 530 528 526 525 524 523 523 522 521 520 519 518 517 515 514 513 511 510 509 508 507 507 507 506 505 504 504 503 502 502 502 501 501 501 501 502 502 501 501 500 499 499 499 500 500 501 501 502 503 503 504 507 509 511 513 514 515 515 515 516 517
588 586 583 580 578 575 573 570 567 565 562 559 556 553 551 548 546 545 543 541 539 538 535 534 532 530 528 526 525 524 524 524 523 522 521 520 519 517 516 514 513 511 510 508 507 506 505 505 505 505 504 504 504 504 503 503 503 503 503 503 503 503 503 502 501 501 501 501 502 503 503 504 505 505 506 507 509 511 513 516 517 518 518 518 519 520